Regional Weather Roundup
Issued by NWS

Home | Current Version | Previous Version | Graphics & Text | Print | Product List | Glossary On
Versions: 1 2 3 4 5 6 7 8 9 10 11 12 13 14 15 16 17 18 19 20 21 22 23 24 25 26 27 28 29 30 31 32 33 34 35 36 37 38 39 40 41 42 43 44 45 46 47 48 49 50
911
ASUS43 KLSX 180207
RWRMO

WEATHER SUMMARY FOR MISSOURI
NATIONAL WEATHER SERVICE SPRINGFIELD MO
800 PM CST SUN DEC 17 2017

NOTE: "FAIR" INDICATES FEW OR NO CLOUDS BELOW 12,000 FEET WITH NO
       SIGNIFICANT WEATHER AND/OR OBSTRUCTIONS TO VISIBILITY.
       CURRENT SKY AND/OR WEATHER CONDITIONS ARE NOT AVAILABLE FOR
       CHILLICOTHE AND FARMINGTON.

MOZ001>031-035>038-043-044-053-054-180300-
...NORTHERN AND WESTERN MISSOURI...

CITY           SKY/WX    TMP DP  RH WIND       PRES   REMARKS
KANSAS CTY INT CLOUDY    45  42  89 S10       30.01S
KANSAS C DTWN  MOCLDY    45  40  82 S7        30.01F
LEE`S SUMMIT   CLOUDY    45  43  93 SW8       30.03S
ST JOSEPH      FOG       38  38 100 NW3       30.02R VSB 1/4
CHILLICOTHE      N/A     45  44  97 S5        30.03R
KIRKSVILLE     CLOUDY    44  32  62 SW9       30.02R HAZE

$$
MOZ066>068-077>081-088>096-101>105-180300-
...SOUTHWEST MISSOURI...

CITY           SKY/WX    TMP DP  RH WIND       PRES   REMARKS
SPRINGFIELD    CLOUDY    46  45  96 SW3       30.06S
JOPLIN         CLOUDY    45  45 100 CALM      30.08S FOG
BRANSON        FOG       45  45 100 CALM      30.09R VSB 1/2

$$
MOZ032>034-039>042-045>050-055>058-069>072-180300-
...CENTRAL MISSOURI...

CITY           SKY/WX    TMP DP  RH WIND       PRES   REMARKS
COLUMBIA       CLOUDY    45  44  97 SW8       30.06R
JEFFERSON CITY CLOUDY    47  43  86 SW6       30.07S
ROLLA          CLOUDY    45  45 100 W8        30.07S FOG
SEDALIA        CLOUDY    46  46 100 SW7       30.07R
WHITEMAN AFB   CLOUDY    44  43  94 S8        30.00S
WARRENSBURG    CLOUDY    43  43 100 S7        30.04S
OSAGE BEACH    CLOUDY    46  42  86 SW5       30.08S

$$
MOZ051-052-059>065-180300-
...EAST CENTRAL MISSOURI...

CITY           SKY/WX    TMP DP  RH WIND       PRES   REMARKS
ST LOUIS INTL  CLOUDY    49  43  80 SW9       30.07R
SPIRIT OF STL  CLOUDY    49  43  80 SW6       30.06R
ST CHARLES     CLOUDY    50  42  74 SW9       30.06R

$$
MOZ072>076-082>087-097>100-106>115-180300-
...SOUTH CENTRAL AND SOUTHEAST MISSOURI...

CITY           SKY/WX    TMP DP  RH WIND       PRES   REMARKS
CAPE GIRARDEAU CLOUDY    45  43  93 SW7       30.13R
FARMINGTON     CLOUDY    45  43  93 CALM      30.09S
POPLAR BLUFF   CLOUDY    45  44  97 CALM      30.12S
WEST PLAINS    CLOUDY    46  44  93 S6        30.09S FOG

$$



USA.gov is the U.S. government's official web portal to all federal, state and local government web resources and services.